Wrangell, AK

11:33 PM AKST on February 25, 2017 (GMT -0900)
Wrangell

Weather History for PAWG - January, 2012

Change the Weather History Date:

Wednesday, January 11, 2012

  Actual Average Record
Temperature  
Mean Temperature 36 °F -  
Max Temperature 39 °F 30 °F 49 °F (1981)
Min Temperature 32 °F 20 °F -2 °F (1975)
Degree Days  
Heating Degree Days 30    
Moisture  
Dew Point 29 °F    
Average Humidity 78    
Maximum Humidity 87    
Minimum Humidity 70    
Precipitation  
Precipitation 0.00 in - - ()
Sea Level Pressure  
Sea Level Pressure 30.33 in    
Wind  
Wind Speed 16 mph (ESE)    
Max Wind Speed 23 mph    
Max Gust Speed 30 mph    
Visibility 5 miles    
Events      
Averages and records for this station are not official NWS values.
T = Trace of Precipitation, MM = Missing Value Source: NWS Daily Summary

Daily Weather History Graph

Daily Weather History Graph

Search for Another Location

Airport or City:

Trip Planner

Search our weather history database for the weather conditions in past years. The results will help you decide how hot, cold, wet, or windy it might be!

Date:

Astronomy

Jan. 11, 2012 Rise Set
Actual Time 8:17 AM AKST 3:37 PM AKST
Civil Twilight 7:31 AM AKST 4:23 PM AKST
Nautical Twilight 6:43 AM AKST 5:11 PM AKST
Astronomical Twilight 5:57 AM AKST 5:57 PM AKST
Moon 7:28 PM AKST (1/11) 8:54 AM AKST (1/11)
Length of Visible Light 8h 51m
Length of Day
7h 19m
Waning Gibbous, 93% of the Moon is Illuminated
Jan 11
Waning Gibbous
Jan 16
Last Quarter
Jan 22
New
Jan 30
First Quarter
Feb 7
Full

Hourly Weather History & Observations

Time (AKST) Temp. Windchill Dew Point Humidity Pressure Visibility Wind Dir Wind Speed Gust Speed Precip Events Conditions
12:16 AM 33.8 °F 25.8 °F 24.8 °F 70% 30.47 in 10.0 mi ESE 10.4 mph 18.4 mph N/A   Overcast
12:36 AM 33.8 °F 23.5 °F 26.6 °F 75% 30.45 in 10.0 mi ESE 16.1 mph 21.9 mph N/A   Overcast
12:56 AM 33.8 °F 23.5 °F 24.8 °F 70% 30.45 in 9.0 mi SE 16.1 mph 20.7 mph N/A   Overcast
1:16 AM 33.8 °F 24.3 °F 24.8 °F 70% 30.44 in 6.0 mi SE 13.8 mph - N/A   Overcast
1:36 AM 33.8 °F 25.3 °F 26.6 °F 75% 30.45 in 3.0 mi SE 11.5 mph 21.9 mph N/A   Overcast
1:56 AM 32.0 °F 21.6 °F 26.6 °F 80% 30.44 in 2.0 mi SE 15.0 mph 21.9 mph N/A   Overcast
2:16 AM 33.8 °F 22.5 °F 28.4 °F 81% 30.43 in 2.5 mi ESE 19.6 mph 23.0 mph N/A   Overcast
2:36 AM 33.8 °F 23.5 °F 28.4 °F 81% 30.42 in 2.5 mi ESE 16.1 mph 21.9 mph N/A   Overcast
2:56 AM 33.8 °F 22.8 °F 28.4 °F 81% 30.41 in 3.0 mi ESE 18.4 mph 23.0 mph N/A   Overcast
3:16 AM 33.8 °F 23.2 °F 28.4 °F 81% 30.40 in 3.0 mi SE 17.3 mph 27.6 mph N/A   Overcast
3:36 AM 33.8 °F 22.8 °F 28.4 °F 81% 30.39 in 2.5 mi ESE 18.4 mph 24.2 mph N/A   Overcast
3:56 AM 33.8 °F 22.2 °F 28.4 °F 81% 30.38 in 3.0 mi SE 20.7 mph 26.5 mph N/A   Overcast
4:16 AM 33.8 °F 22.8 °F 28.4 °F 81% 30.38 in 2.5 mi SE 18.4 mph 27.6 mph N/A   Overcast
4:36 AM 33.8 °F 23.2 °F 26.6 °F 75% 30.38 in 2.5 mi ESE 17.3 mph 23.0 mph N/A   Overcast
4:56 AM 33.8 °F 23.5 °F 28.4 °F 81% 30.38 in 2.5 mi ESE 16.1 mph - N/A   Overcast
5:16 AM 33.8 °F 23.2 °F 28.4 °F 81% 30.36 in 2.5 mi SE 17.3 mph 24.2 mph N/A   Overcast
5:36 AM 33.8 °F 21.6 °F 28.4 °F 81% 30.34 in 2.5 mi ESE 23.0 mph 28.8 mph N/A   Mostly Cloudy
5:56 AM 33.8 °F 23.5 °F 28.4 °F 81% 30.34 in 1.0 mi SE 16.1 mph 24.2 mph N/A   Overcast
6:16 AM 33.8 °F 22.5 °F 28.4 °F 81% 30.33 in 1.0 mi SE 19.6 mph 26.5 mph N/A   Overcast
6:36 AM 33.8 °F 22.8 °F 26.6 °F 75% 30.35 in 1.0 mi SE 18.4 mph 24.2 mph N/A   Overcast
6:56 AM 33.8 °F 23.2 °F 28.4 °F 81% 30.34 in 1.0 mi ESE 17.3 mph 21.9 mph N/A   Overcast
7:16 AM 33.8 °F 22.5 °F 30.2 °F 87% 30.32 in 1.0 mi ESE 19.6 mph 23.0 mph N/A   Overcast
7:36 AM 33.8 °F 22.8 °F 28.4 °F 81% 30.31 in 1.0 mi SE 18.4 mph 24.2 mph N/A   Overcast
7:56 AM 35.6 °F 24.2 °F 28.4 °F 75% 30.32 in 4.0 mi ESE 21.9 mph 29.9 mph N/A   Overcast
8:16 AM 35.6 °F 25.2 °F 28.4 °F 75% 30.31 in 7.0 mi SE 18.4 mph 24.2 mph N/A   Overcast
8:36 AM 35.6 °F 26.2 °F 28.4 °F 75% 30.31 in 7.0 mi ESE 15.0 mph 24.2 mph N/A   Overcast
8:56 AM 35.6 °F 25.5 °F 28.4 °F 75% 30.31 in 7.0 mi ESE 17.3 mph 24.2 mph N/A   Overcast
9:16 AM 35.6 °F 25.2 °F 28.4 °F 75% 30.31 in 7.0 mi SE 18.4 mph - N/A   Overcast
9:36 AM 35.6 °F 25.9 °F 28.4 °F 75% 30.33 in 7.0 mi SE 16.1 mph 23.0 mph N/A   Overcast
9:56 AM 35.6 °F 26.6 °F 28.4 °F 75% 30.33 in 7.0 mi SE 13.8 mph 21.9 mph N/A   Overcast
10:16 AM 35.6 °F 25.2 °F 30.2 °F 81% 30.33 in 7.0 mi SE 18.4 mph 23.0 mph N/A   Overcast
10:36 AM 35.6 °F 24.2 °F 30.2 °F 81% 30.32 in 7.0 mi ESE 21.9 mph 25.3 mph N/A   Overcast
10:56 AM 35.6 °F 26.2 °F 30.2 °F 81% 30.33 in 7.0 mi ESE 15.0 mph 26.5 mph N/A   Overcast
11:16 AM 35.6 °F 25.5 °F 30.2 °F 81% 30.32 in 7.0 mi ESE 17.3 mph 21.9 mph N/A   Overcast
11:36 AM 35.6 °F 24.8 °F 30.2 °F 81% 30.32 in 7.0 mi ESE 19.6 mph 24.2 mph N/A   Overcast
11:56 AM 37.4 °F 27.8 °F 30.2 °F 75% 30.31 in 7.0 mi ESE 17.3 mph 25.3 mph N/A   Overcast
12:16 PM 37.4 °F 27.8 °F 30.2 °F 75% 30.32 in 7.0 mi ESE 17.3 mph - N/A   Overcast
12:36 PM 37.4 °F 28.2 °F 30.2 °F 75% 30.32 in 7.0 mi ESE 16.1 mph 23.0 mph N/A   Overcast
12:56 PM 37.4 °F 28.2 °F 30.2 °F 75% 30.32 in 7.0 mi ESE 16.1 mph 21.9 mph N/A   Overcast
1:16 PM 37.4 °F 28.2 °F 30.2 °F 75% 30.31 in 7.0 mi ESE 16.1 mph 21.9 mph N/A   Overcast
1:36 PM 37.4 °F 27.2 °F 32.0 °F 81% 30.31 in 7.0 mi East 19.6 mph 26.5 mph N/A   Overcast
1:56 PM 37.4 °F 27.8 °F 32.0 °F 81% 30.30 in 4.0 mi East 17.3 mph 24.2 mph N/A   Overcast
2:16 PM 37.4 °F 27.2 °F 32.0 °F 81% 30.29 in 4.0 mi East 19.6 mph 25.3 mph N/A   Overcast
2:36 PM 37.4 °F 27.5 °F 33.8 °F 87% 30.29 in 4.0 mi East 18.4 mph 24.2 mph N/A   Overcast
2:56 PM 37.4 °F 28.5 °F 32.0 °F 81% 30.28 in 5.0 mi East 15.0 mph 23.0 mph N/A   Overcast
3:16 PM 37.4 °F 28.2 °F 33.8 °F 87% 30.28 in 5.0 mi East 16.1 mph 24.2 mph N/A   Overcast
3:36 PM 37.4 °F 28.2 °F 33.8 °F 87% 30.27 in 5.0 mi East 16.1 mph 24.2 mph N/A   Overcast
3:56 PM 37.4 °F 27.8 °F 32.0 °F 81% 30.27 in 8.0 mi ESE 17.3 mph 25.3 mph N/A   Overcast
4:16 PM 37.4 °F 27.5 °F 33.8 °F 87% 30.26 in 8.0 mi ESE 18.4 mph 23.0 mph N/A   Overcast
4:36 PM 39.2 °F 29.8 °F 30.2 °F 70% 30.25 in 8.0 mi ESE 18.4 mph 27.6 mph N/A   Overcast
4:56 PM 39.2 °F 29.8 °F 32.0 °F 75% 30.24 in 8.0 mi SE 18.4 mph - N/A   Overcast
5:16 PM 39.2 °F 30.8 °F 32.0 °F 75% 30.23 in 8.0 mi East 15.0 mph 24.2 mph N/A   Overcast
5:36 PM 39.2 °F 31.2 °F 32.0 °F 75% 30.22 in 8.0 mi East 13.8 mph 24.2 mph N/A   Overcast
5:56 PM 39.2 °F 30.2 °F 30.2 °F 70% 30.22 in 7.0 mi SE 17.3 mph 21.9 mph N/A   Overcast
6:16 PM 37.4 °F 27.5 °F 32.0 °F 81% 30.20 in 7.0 mi ESE 18.4 mph - N/A   Overcast
6:36 PM 39.2 °F 30.8 °F 32.0 °F 75% 30.21 in 7.0 mi SE 15.0 mph - N/A   Overcast
6:56 PM 37.4 °F 27.8 °F 32.0 °F 81% 30.19 in 7.0 mi SE 17.3 mph 23.0 mph N/A   Overcast
7:16 PM 37.4 °F 28.2 °F 33.8 °F 87% 30.20 in 7.0 mi ESE 16.1 mph - N/A   Overcast
7:36 PM 37.4 °F 29.3 °F 32.0 °F 81% 30.20 in 7.0 mi ESE 12.7 mph 18.4 mph N/A   Overcast
7:56 PM 37.4 °F 28.9 °F 32.0 °F 81% 30.19 in 7.0 mi ESE 13.8 mph - N/A   Overcast
8:16 PM 37.4 °F 28.9 °F 33.8 °F 87% 30.17 in 7.0 mi ESE 13.8 mph - N/A   Overcast
8:36 PM 37.4 °F 28.9 °F 33.8 °F 87% 30.17 in 7.0 mi East 13.8 mph 18.4 mph N/A   Overcast
8:56 PM 37.4 °F 28.5 °F 33.8 °F 87% 30.17 in 7.0 mi ESE 15.0 mph 18.4 mph N/A   Overcast
9:16 PM 37.4 °F 27.8 °F 32.0 °F 81% 30.15 in 7.0 mi ESE 17.3 mph 20.7 mph N/A   Overcast
9:36 PM 37.4 °F 28.9 °F 33.8 °F 87% 30.14 in 7.0 mi ESE 13.8 mph - N/A   Overcast
9:56 PM 37.4 °F 27.5 °F 32.0 °F 81% 30.13 in 5.0 mi ESE 18.4 mph 25.3 mph N/A   Overcast
10:16 PM 37.4 °F 27.8 °F 32.0 °F 81% 30.12 in 5.0 mi ESE 17.3 mph 24.2 mph N/A   Overcast
10:36 PM 37.4 °F 26.9 °F 32.0 °F 81% 30.10 in 5.0 mi ESE 20.7 mph 26.5 mph N/A   Overcast
10:56 PM 37.4 °F 27.8 °F 32.0 °F 81% 30.10 in 5.0 mi SE 17.3 mph 24.2 mph N/A   Overcast
11:16 PM 37.4 °F 26.9 °F 32.0 °F 81% 30.09 in 10.0 mi SE 20.7 mph 28.8 mph N/A   Overcast
11:36 PM 37.4 °F 26.9 °F 30.2 °F 75% 30.08 in 9.0 mi ESE 20.7 mph 28.8 mph N/A   Overcast
11:56 PM 37.4 °F 26.6 °F 32.0 °F 81% 30.07 in 10.0 mi ESE 21.9 mph 26.5 mph N/A   Overcast